User: anonymous   Login
Location: Bergen
(60.3910°N, 5.3250°E)
Time: 22:30:31
(UTC+02:00)
Language:

Cosmos 1943 - Orbit

View from above orbital plane
View from above orbital plane
View from above satellite
View from above satellite

Ground track
Ground track

The orbit data is extracted from the following two-line orbital elements,

1 19119U 88039A   15150.20603291  .00000323  00000-0  19101-3 0  9997
2 19119 071.0039 234.5568 0009856 122.5595 264.4855 14.15018295396146
Epoch (UTC): 30 May 2015 04:56:41
Eccentricity: 0.0009856
inclination: 71.0039°
perigee height: 835 km
apogee height: 849 km
right ascension of ascending node: 234.5568°
argument of perigee: 122.5595°
revolutions per day: 14.15018295
mean anomaly at epoch: 264.4855°
orbit number at epoch: 39614

The dashed part of the orbit path shows where the satellite is in the earth's shadow,  

DLR